Location: C.E.K. Mees Observatory
(42.7003°N, 77.4088°W)
Time: 17:11:02
(UTC-05:00)

Vanguard 3 - Pass Details

Date: 29 June 2018
Orbit: 508 x 3264 km, 33.3° (Epoch: 12 November)

Event Time Altitude Azimuth Distance (km) Brightness Sun altitude
Rises 04:40:45 0° 256° (WSW) 2,889 - -8.6°
Exits shadow 04:42:41 - 246° (WSW) 2,221 8.8 -8.3°
Reaches altitude 10° 04:42:53 10° 244° (WSW) 2,160 8.7 -8.3°
Maximum altitude 04:47:15 31° 182° (S) 1,548 8.2 -7.7°
Drops below altitude 10° 04:53:55 10° 124° (SE) 3,370 10.5 -6.8°
Sets 04:58:10 0° 116° (ESE) 4,848 11.5 -6.2°
